Location: Unspecified
(0.0000°N, 0.0000°E)
Time: 10:08:20
(UTC+00:00)

X-37B - Visible Passes

Search period start: 24 September 2023 00:00
Search period end: 04 October 2023 00:00
Orbit: 277 x 277 km, 45.0° (Epoch: 01 November)

Date Brightness Start Highest point End Pass type
(mag) Time Alt. Az. Time Alt. Az. Time Alt. Az.
29 Sep 1.5 18:51:08 10° SSW 18:52:36 23° SSE 18:52:36 23° SSE visible
30 Sep 0.0 18:51:30 10° SW 18:53:56 71° NW 18:54:21 53° NNE visible
01 Oct 2.5 18:52:41 10° W 18:54:34 19° NW 18:56:07 12° N visible
